Temp
1 1 1 1 0 -0 -0 -1 -2 -2 -1 -2 -3 -2 -3 -3 -3 -3 -3 -3 -4 -4 -4 -4 -5 -5 -5 -5 -6 -6 -6 -6 -6 -6 -6 -6 -6 -6
0 0 -0 -0 -0 -1 -1 -1 -2 -3 -3 -3 -3 -3 -4 -4 -3 -4 -4 -4 -4 -5 -5 -5 -6 -6 -6 -6 -7 -7 -7 -7 -7 -6 -6 -6 -6 -6
-1 -1 -1 -1 -1 -1 -1 -2 -2 -3 -4 -3 -4 -4 -4 -4 -4 -4 -4 -4 -5 -5 -5 -5 -6 -6 -7 -7 -7 -7 -7 -7 -7 -7 -7 -7 -7 -7
-1 -1 -1 -1 -1 -1 -2 -2 -2 -4 -5 -4 -4 -4 -4 -5 -4 -5 -4 -5 -6 -6 -5 -6 -6 -7 -7 -7 -7 -8 -7 -8 -7 -7 -7 -7 -7 -8
-1 -1 -1 -1 -2 -2 -3 -3 -4 -5 -6 -6 -5 -4 -5 -4 -4 -5 -5 -6 -6 -6 -6 -6 -7 -7 -8 -8 -8 -8 -8 -8 -8 -7 -8 -8 -8 -8
-2 -2 -3 -3 -3 -4 -4 -5 -5 -6 -6 -7 -7 -5 -5 -5 -7 -6 -6 -6 -6 -7 -7 -8 -8 -8 -8 -8 -8 -8 -8 -8 -8 -8 -8 -8 -8 -8
-3 -4 -5 -5 -5 -5 -6 -5 -6 -6 -6 -7 -6 -6 -6 -5 -6 -6 -6 -7 -7 -7 -8 -8 -8 -9 -8 -8 -8 -8 -8 -8 -8 -8 -8 -9 -9 -9
-6 -6 -6 -6 -5 -6 -7 -7 -8 -7 -7 -9 -7 -7 -7 -6 -6 -6 -7 -8 -8 -8 -9 -9 -8 -8 -8 -8 -8 -9 -8 -9 -9 -9 -9 -9 -10 -9
-6 -6 -5 -5 -6 -6 -5 -6 -7 -8 -8 -9 -9 -8 -7 -6 -7 -7 -8 -9 -9 -9 -9 -8 -9 -9 -9 -9 -9 -9 -9 -9 -9 -9 -9 -10 -10 -10
-6 -6 -6 -6 -6 -7 -7 -8 -8 -8 -8 -8 -8 -8 -7 -7 -8 -8 -9 -9 -9 -8 -9 -9 -9 -10 -10 -9 -9 -9 -9 -9 -9 -9 -10 -10 -10 -10
-7 -7 -7 -7 -7 -9 -10 -9 -9 -9 -9 -8 -8 -8 -8 -8 -9 -9 -9 -9 -9 -9 -9 -9 -10 -10 -10 -10 -10 -9 -10 -10 -10 -10 -10 -10 -10 -10
-7 -7 -7 -8 -9 -10 -10 -9 -9 -9 -8 -9 -9 -9 -9 -9 -10 -10 -9 -9 -9 -9 -9 -9 -9 -10 -10 -10 -10 -10 -10 -10 -10 -10 -10 -10 -10 -10
-7 -7 -8 -8 -8 -8 -8 -8 -9 -9 -9 -10 -9 -10 -10 -9 -10 -9 -9 -9 -9 -9 -9 -9 -10 -10 -10 -10 -10 -10 -10 -10 -10 -10 -10 -10 -10 -11
-7 -8 -8 -8 -7 -8 -8 -9 -10 -10 -10 -10 -10 -10 -10 -10 -10 -9 -9 -9 -9 -10 -11 -11 -11 -11 -11 -10 -10 -10 -10 -10 -10 -10 -11 -11 -11 -11
-9 -8 -8 -8 -8 -8 -9 -9 -10 -10 -10 -10 -10 -10 -10 -10 -10 -10 -10 -10 -10 -10 -11 -11 -11 -11 -11 -11 -10 -11 -11 -11 -11 -11 -11 -11 -11 -11
-9 -9 -9 -9 -8 -8 -9 -10 -10 -10 -10 -10 -10 -10 -10 -10 -10 -10 -10 -10 -10 -11 -11 -11 -11 -11 -11 -11 -11 -12 -11 -11 -11 -11 -11 -11 -11 -11
-11 -10 -10 -10 -10 -10 -10 -10 -10 -10 -10 -10 -10 -10 -10 -10 -10 -10 -10 -11 -11 -11 -11 -11 -11 -11 -11 -11 -11 -11 -11 -11 -11 -11 -11 -11 -11 -11
-12 -11 -11 -11 -11 -11 -10 -10 -10 -10 -10 -10 -10 -10 -10 -11 -11 -11 -11 -11 -11 -11 -11 -11 -11 -11 -11 -11 -11 -12 -12 -11 -11 -11 -11 -12 -11 -11
-12 -12 -12 -12 -11 -11 -11 -11 -11 -11 -11 -11 -11 -11 -11 -11 -11 -11 -12 -12 -12 -11 -11 -11 -11 -11 -11 -11 -11 -12 -12 -12 -11 -12 -12 -12 -12 -11
-13 -13 -12 -12 -12 -12 -11 -11 -11 -11 -11 -11 -11 -11 -11 -11 -12 -12 -12 -12 -12 -12 -12 -11 -11 -11 -12 -12 -12 -12 -12 -12 -12 -12 -12 -12 -12 -12
-14 -13 -13 -12 -12 -12 -12 -12 -11 -11 -11 -11 -12 -12 -12 -12 -12 -12 -12 -12 -12 -12 -12 -12 -12 -12 -12 -12 -12 -12 -12 -12 -12 -12 -12 -12 -12 -13
-14 -13 -13 -12 -12 -12 -12 -12 -12 -12 -12 -12 -12 -12 -12 -12 -13 -12 -12 -13 -13 -12 -12 -13 -13 -13 -13 -12 -12 -12 -13 -13 -12 -12 -12 -13 -13 -13
-13 -13 -12 -13 -12 -12 -12 -12 -12 -12 -12 -12 -12 -12 -12 -13 -13 -13 -13 -13 -13 -13 -13 -13 -13 -13 -13 -13 -13 -13 -13 -13 -12 -12 -13 -13 -13 -13
Height
3108 3105 3101 3098 3094 3090 3087 3083 3078 3070 3068 3068 3064 3066 3067 3063 3060 3058 3056 3053 3051 3050 3049 3047 3046 3046 3045 3044 3043 3043 3042 3041 3039 3039 3039 3038 3037 3037
3098 3095 3091 3088 3083 3079 3076 3072 3068 3064 3055 3057 3055 3048 3052 3051 3047 3046 3044 3043 3041 3040 3039 3038 3038 3039 3038 3038 3036 3035 3035 3034 3033 3033 3031 3032 3031 3030
3089 3084 3081 3078 3073 3069 3065 3061 3057 3053 3046 3043 3042 3039 3037 3037 3035 3034 3032 3031 3031 3030 3029 3029 3029 3029 3029 3030 3029 3029 3031 3030 3028 3028 3025 3025 3025 3024
3076 3072 3068 3064 3059 3054 3050 3046 3042 3039 3035 3030 3030 3024 3026 3026 3022 3020 3020 3019 3019 3018 3018 3018 3019 3020 3021 3022 3022 3022 3023 3024 3022 3023 3021 3021 3020 3019
3063 3059 3054 3050 3045 3041 3037 3032 3028 3024 3021 3018 3016 3014 3012 3012 3009 3008 3007 3007 3008 3007 3008 3009 3010 3012 3014 3014 3015 3016 3017 3018 3017 3017 3016 3015 3014 3013
3052 3047 3041 3036 3031 3026 3022 3017 3012 3007 3005 3004 3003 3000 3000 2999 2999 2999 2998 2997 2997 2997 2998 2999 3001 3003 3005 3006 3006 3007 3010 3012 3011 3011 3011 3010 3009 3007
3038 3034 3029 3025 3020 3014 3008 3004 2999 2995 2991 2988 2990 2988 2986 2987 2987 2989 2989 2989 2989 2989 2989 2990 2993 2995 2998 3000 3001 3003 3005 3006 3005 3006 3006 3005 3004 3002
3026 3023 3018 3013 3008 3001 2996 2990 2987 2980 2977 2975 2975 2975 2975 2975 2976 2977 2978 2980 2983 2979 2986 2986 2987 2987 2989 2991 2994 2996 2998 3000 3000 3001 3001 3001 2999 2998
3016 3012 3007 3001 2995 2988 2982 2975 2971 2969 2966 2965 2962 2961 2962 2963 2965 2968 2970 2973 2974 2978 2978 2979 2980 2981 2982 2986 2988 2991 2993 2995 2996 2997 2997 2996 2995 2994
3008 3002 2994 2989 2980 2970 2962 2956 2954 2953 2954 2955 2955 2955 2953 2954 2956 2959 2963 2966 2968 2971 2972 2974 2975 2976 2978 2981 2984 2986 2988 2991 2992 2992 2992 2992 2991 2990
3000 2993 2987 2975 2970 2958 2949 2945 2942 2940 2945 2946 2947 2944 2946 2948 2951 2954 2956 2960 2962 2964 2966 2969 2970 2972 2974 2977 2980 2982 2985 2987 2988 2989 2989 2988 2987 2987
2992 2984 2976 2966 2959 2952 2945 2939 2938 2937 2938 2939 2941 2942 2943 2945 2947 2949 2953 2954 2957 2959 2961 2963 2965 2967 2969 2973 2976 2979 2982 2984 2985 2985 2985 2985 2984 2983
2981 2976 2968 2961 2957 2950 2944 2940 2935 2934 2935 2937 2938 2939 2940 2942 2944 2946 2948 2950 2952 2953 2955 2957 2959 2962 2965 2969 2972 2975 2978 2980 2981 2982 2982 2982 2981 2981
2971 2967 2961 2954 2952 2947 2943 2938 2936 2936 2935 2935 2936 2937 2938 2939 2940 2942 2944 2945 2946 2948 2950 2951 2954 2958 2962 2965 2967 2971 2974 2977 2978 2978 2978 2979 2978 2979
2960 2957 2954 2948 2945 2943 2940 2937 2936 2935 2935 2934 2934 2935 2935 2937 2938 2939 2940 2940 2942 2943 2944 2947 2950 2953 2956 2960 2963 2966 2971 2973 2974 2975 2975 2976 2976 2977
2950 2946 2944 2940 2937 2936 2935 2934 2934 2933 2933 2932 2932 2933 2933 2935 2935 2935 2936 2936 2937 2939 2941 2943 2946 2948 2951 2955 2958 2962 2966 2969 2970 2971 2972 2973 2974 2975
2939 2936 2935 2933 2931 2930 2931 2931 2931 2930 2930 2930 2930 2931 2932 2932 2931 2932 2932 2933 2934 2935 2937 2939 2941 2944 2947 2951 2954 2959 2962 2965 2967 2968 2969 2970 2971 2972
2931 2929 2927 2926 2927 2927 2927 2926 2926 2926 2927 2928 2928 2929 2928 2928 2928 2928 2929 2930 2931 2932 2934 2936 2938 2941 2945 2949 2952 2956 2959 2962 2963 2964 2966 2967 2968 2969
2922 2921 2920 2920 2922 2922 2922 2922 2922 2923 2924 2924 2925 2925 2925 2925 2925 2926 2926 2927 2928 2930 2932 2934 2937 2941 2944 2947 2950 2954 2957 2958 2960 2962 2963 2964 2965 2966
2915 2914 2911 2913 2917 2917 2917 2918 2918 2919 2920 2921 2922 2922 2922 2923 2924 2924 2924 2925 2926 2928 2931 2933 2936 2939 2942 2946 2949 2952 2954 2956 2957 2959 2960 2961 2962 2962
2908 2907 2905 2909 2912 2913 2913 2914 2915 2916 2918 2919 2920 2920 2921 2921 2922 2922 2923 2924 2926 2927 2930 2932 2935 2938 2941 2944 2947 2950 2952 2953 2955 2956 2957 2958 2959 2960
2903 2902 2901 2904 2908 2909 2909 2911 2912 2914 2915 2916 2918 2919 2919 2919 2921 2922 2922 2923 2925 2927 2929 2932 2935 2938 2941 2944 2946 2948 2950 2951 2953 2954 2955 2956 2957 2958
2897 2897 2898 2901 2904 2905 2906 2907 2909 2911 2913 2915 2916 2917 2917 2918 2920 2921 2922 2923 2925 2927 2930 2933 2936 2938 2941 2943 2945 2946 2948 2950 2951 2951 2953 2954 2955 2957
Wind_Speed
47 47 48 48 48 49 50 51 53 58 59 57 57 55 49 50 49 51 49 47 47 43 36 33 31 31 30 29 28 27 30 30 30 29 28 27 27 27
43 44 45 45 46 48 48 49 50 49 56 54 54 57 46 49 48 51 50 49 49 42 36 32 31 31 30 28 27 30 29 25 23 23 24 25 25 24
43 45 46 47 49 50 51 51 52 52 52 54 52 54 55 50 50 49 51 47 44 37 37 34 32 30 29 25 28 28 24 24 22 22 19 19 19 20
43 44 45 47 49 51 53 54 55 54 54 55 53 54 54 51 55 47 47 50 43 36 35 34 31 30 27 25 29 29 23 27 24 20 19 19 19 20
47 48 49 50 52 55 56 58 59 57 55 57 50 54 54 48 51 48 47 45 40 34 35 29 29 29 27 26 29 28 27 24 20 22 20 18 19 21
48 49 50 51 52 53 54 55 56 56 54 53 49 50 52 43 46 51 45 45 38 33 31 25 27 25 21 25 27 29 27 24 19 20 20 20 20 22
47 46 47 48 49 50 51 52 51 52 54 50 48 52 49 44 44 43 46 34 30 27 25 23 22 22 20 26 31 28 26 30 27 26 22 20 21 22
45 45 45 45 47 48 50 50 47 47 48 50 52 53 44 46 48 45 33 31 26 22 22 25 23 23 25 31 37 31 33 31 22 21 20 18 20 20
43 44 45 47 49 50 52 53 48 41 37 48 49 47 42 45 40 34 27 23 25 22 24 23 21 21 19 22 25 26 24 19 18 17 14 15 18 17
39 43 46 49 50 53 54 48 41 39 35 38 35 41 36 35 32 26 22 24 21 22 20 20 18 17 19 20 19 16 19 20 17 13 13 16 17 14
41 43 46 47 49 48 43 37 30 31 28 27 24 38 34 26 24 23 20 17 20 18 16 18 18 19 22 21 16 19 20 17 13 13 14 14 14 12
42 43 44 39 30 32 32 19 19 20 24 27 29 29 22 21 19 17 16 18 19 18 17 20 20 22 24 24 18 22 22 17 13 14 13 14 13 9
43 41 37 27 33 26 22 21 15 17 20 20 20 19 18 17 13 14 17 19 19 18 17 20 22 22 23 22 20 22 24 17 16 15 13 13 11 8
42 37 33 24 29 24 24 19 18 15 15 15 14 12 11 13 12 13 16 16 15 17 17 20 23 22 20 19 20 21 23 20 17 15 14 13 9 8
38 37 32 27 25 24 23 16 13 13 13 10 9 10 10 11 12 13 14 14 15 15 17 20 21 22 22 19 16 16 18 16 17 15 14 12 9 8
37 32 30 25 23 19 17 15 17 16 12 12 10 9 10 12 12 12 12 13 13 14 15 17 19 20 20 18 16 15 18 18 16 15 14 12 9 9
35 28 26 20 15 11 13 16 19 15 11 11 10 10 11 10 10 10 11 12 13 13 14 16 17 20 20 22 20 18 17 16 15 15 14 11 11 10
27 26 20 14 17 15 15 17 17 13 12 11 10 10 8 9 9 10 11 13 14 14 14 13 15 20 22 21 20 19 17 16 16 15 12 12 12 11
24 22 21 19 20 18 17 15 14 13 12 11 10 8 7 9 9 10 11 11 12 15 14 14 17 18 17 17 16 16 16 16 16 13 12 13 12 12
29 24 19 18 18 17 15 14 12 12 12 10 9 7 8 8 9 9 10 11 11 12 14 14 14 15 16 15 15 15 16 16 13 12 13 13 12 11
26 20 13 18 15 14 13 13 13 12 12 10 9 7 8 6 7 6 7 11 13 12 11 10 11 12 13 14 15 16 14 11 11 11 11 11 10 9
23 20 13 19 17 14 13 13 12 12 12 10 9 8 7 6 8 8 7 8 11 12 11 11 12 13 14 15 15 12 10 10 11 11 10 10 9 9
19 19 13 15 13 15 14 12 13 13 12 11 9 8 7 8 9 9 9 10 12 12 12 13 13 13 13 12 10 10 10 10 10 10 10 10 10 10
Wind_Direction
285 285 285 286 285 285 285 285 285 286 285 286 286 283 285 285 282 285 283 287 285 289 280 278 275 274 273 270 266 267 269 271 272 274 276 276 277 274
290 289 288 288 287 286 285 286 286 282 283 284 284 287 282 282 277 283 281 285 282 282 273 274 272 271 267 265 259 263 267 271 275 275 276 281 277 276
294 293 292 291 289 288 287 286 285 285 283 285 282 281 283 279 280 281 285 282 284 277 274 271 270 265 263 260 253 261 262 268 272 280 279 275 282 287
296 294 293 290 287 285 284 283 281 279 279 277 277 280 276 281 278 280 286 278 282 278 270 266 262 260 256 254 254 260 263 267 266 274 280 280 287 291
297 294 291 288 286 285 282 281 280 279 277 276 277 275 282 275 273 274 280 277 283 270 268 265 260 260 255 249 251 249 262 256 263 277 280 278 285 294
294 292 291 291 291 291 289 288 286 283 281 279 274 272 272 280 285 281 271 274 273 264 264 261 260 261 255 247 244 250 251 252 276 281 271 282 286 296
295 296 297 298 298 297 295 295 292 289 284 275 272 269 272 278 280 277 270 255 260 263 265 252 257 262 246 233 222 234 239 249 276 277 270 277 287 294
303 304 303 302 299 296 295 294 289 285 279 273 266 270 272 282 268 264 252 248 248 254 261 262 263 259 249 234 233 248 259 270 266 267 260 277 285 289
306 307 305 304 305 303 298 291 284 282 273 270 269 265 267 270 258 253 242 235 248 251 256 258 254 248 239 232 236 241 246 251 254 252 270 280 285 282
307 308 311 313 310 306 300 294 284 279 270 259 270 274 269 260 251 242 239 243 248 252 251 248 243 226 226 227 231 237 247 244 245 263 278 282 279 274
308 312 314 311 309 303 297 296 288 274 268 270 286 264 254 237 238 238 242 248 251 253 248 242 234 221 227 221 224 250 240 235 251 268 286 280 273 269
311 317 318 315 318 312 304 292 304 285 272 277 267 244 241 242 240 239 247 251 255 250 248 246 236 227 223 223 221 240 232 242 256 270 281 278 265 271
308 315 316 318 318 315 298 302 306 297 286 261 251 253 250 244 240 245 251 253 253 256 250 244 232 226 225 226 229 236 235 246 260 269 277 270 259 266
303 311 308 301 310 305 297 304 297 275 267 265 257 249 252 252 252 254 255 256 256 251 240 232 222 224 226 231 235 240 238 253 254 267 272 260 252 259
297 301 299 291 293 300 290 289 271 272 273 268 260 254 249 250 250 253 256 254 249 244 238 231 226 230 230 233 232 236 237 244 254 261 261 248 245 254
290 292 294 283 283 285 277 260 264 267 265 265 254 251 254 254 253 255 255 253 249 244 237 228 223 226 219 221 203 212 230 242 250 253 249 239 242 249
294 294 288 271 271 264 261 264 265 261 256 248 248 249 248 254 262 265 264 258 247 238 232 225 219 216 216 197 194 206 225 240 244 244 238 237 243 247
290 289 272 263 250 255 264 263 256 245 242 240 240 241 251 265 271 272 269 259 241 227 220 215 209 205 198 197 202 217 230 240 240 235 234 242 246 248
271 284 269 267 239 253 258 249 242 235 233 232 237 243 256 261 265 266 263 248 231 213 202 197 205 208 211 215 218 223 233 234 230 229 240 247 249 246
275 287 273 223 241 251 243 240 234 230 232 230 233 235 246 251 259 257 240 222 205 196 199 201 200 203 206 212 222 228 226 224 223 235 245 247 243 240
281 277 269 220 243 255 245 238 231 229 228 222 223 224 236 246 249 232 216 210 200 184 182 195 204 208 212 214 216 215 211 215 228 239 243 238 229 223
281 266 264 237 237 265 250 236 228 221 217 214 213 223 232 236 231 210 189 185 188 187 184 189 193 197 201 203 204 204 211 224 234 238 234 225 214 204
276 264 237 215 243 260 246 228 225 218 214 212 213 227 226 223 218 203 187 183 175 169 173 178 184 189 196 203 205 211 221 227 232 232 224 215 206 201